QPF
0.01 0.02 0.02 0.01 0.00 0.00 0.00 0.00 0.00 0.00 0.00 0.00 0.00 0.00 0.00 0.00 0.00 0.00 0.00 0.00 0.00 0.00 0.00 0.00 0.00 0.00 0.00 0.00 0.00 0.00 0.00 0.00 0.00 0.00 0.00 0.00 0.00 0.00
0.01 0.01 0.01 0.01 0.00 0.00 0.00 0.00 0.00 0.00 0.00 0.00 0.00 0.00 0.00 0.00 0.00 0.00 0.00 0.00 0.00 0.00 0.00 0.00 0.00 0.00 0.00 0.00 0.00 0.00 0.00 0.00 0.00 0.00 0.00 0.00 0.00 0.00
0.00 0.00 0.00 0.00 0.00 0.00 0.00 0.00 0.00 0.00 0.00 0.00 0.00 0.00 0.00 0.00 0.00 0.00 0.00 0.00 0.00 0.00 0.00 0.00 0.00 0.00 0.00 0.00 0.00 0.00 0.00 0.00 0.00 0.00 0.00 0.00 0.00 0.00
0.00 0.00 0.00 0.00 0.00 0.00 0.00 0.00 0.00 0.00 0.00 0.00 0.00 0.00 0.00 0.00 0.00 0.00 0.00 0.00 0.00 0.00 0.00 0.00 0.00 0.00 0.00 0.00 0.00 0.00 0.00 0.00 0.00 0.00 0.00 0.00 0.00 0.00
0.00 0.00 0.00 0.00 0.00 0.00 0.00 0.00 0.00 0.00 0.00 0.00 0.00 0.00 0.00 0.00 0.00 0.00 0.00 0.00 0.00 0.00 0.00 0.00 0.00 0.01 0.01 0.00 0.00 0.00 0.00 0.00 0.00 0.00 0.00 0.00 0.00 0.00
0.00 0.00 0.00 0.00 0.00 0.00 0.00 0.00 0.00 0.00 0.00 0.00 0.00 0.00 0.00 0.00 0.00 0.00 0.00 0.00 0.00 0.00 0.00 0.00 0.00 0.00 0.00 0.00 0.00 0.00 0.00 0.00 0.00 0.00 0.00 0.00 0.00 0.00
0.00 0.00 0.00 0.00 0.00 0.00 0.00 0.00 0.00 0.00 0.00 0.00 0.00 0.00 0.00 0.00 0.00 0.00 0.01 0.00 0.00 0.00 0.00 0.00 0.00 0.00 0.00 0.01 0.01 0.00 0.00 0.00 0.00 0.00 0.00 0.00 0.00 0.00
0.00 0.00 0.00 0.00 0.00 0.00 0.00 0.00 0.00 0.00 0.00 0.00 0.00 0.01 0.00 0.00 0.01 0.02 0.01 0.01 0.01 0.00 0.01 0.00 0.01 0.00 0.00 0.01 0.02 0.00 0.00 0.00 0.00 0.00 0.00 0.00 0.00 0.00
0.00 0.00 0.00 0.00 0.00 0.00 0.00 0.00 0.00 0.00 0.00 0.01 0.01 0.01 0.01 0.01 0.01 0.00 0.00 0.00 0.00 0.00 0.01 0.00 0.00 0.00 0.00 0.00 0.00 0.00 0.00 0.00 0.00 0.00 0.00 0.01 0.00 0.00
0.00 0.00 0.00 0.00 0.00 0.00 0.00 0.00 0.00 0.00 0.00 0.00 0.00 0.00 0.00 0.00 0.00 0.00 0.00 0.00 0.00 0.00 0.01 0.01 0.00 0.00 0.00 0.00 0.00 0.00 0.00 0.00 0.00 0.00 0.00 0.00 0.00 0.00
0.00 0.00 0.00 0.00 0.00 0.00 0.00 0.00 0.00 0.00 0.00 0.00 0.00 0.00 0.00 0.00 0.00 0.00 0.00 0.01 0.01 0.01 0.02 0.01 0.00 0.00 0.00 0.00 0.00 0.00 0.00 0.00 0.00 0.00 0.00 0.00 0.00 0.00
0.00 0.00 0.00 0.00 0.00 0.00 0.00 0.00 0.00 0.00 0.00 0.00 0.00 0.00 0.00 0.00 0.01 0.02 0.01 0.02 0.02 0.00 0.01 0.01 0.01 0.02 0.01 0.01 0.00 0.00 0.00 0.00 0.00 0.00 0.00 0.00 0.00 0.00
0.00 0.00 0.00 0.00 0.00 0.00 0.00 0.00 0.00 0.00 0.00 0.00 0.00 0.00 0.00 0.01 0.01 0.00 0.00 0.00 0.00 0.00 0.00 0.01 0.00 0.01 0.01 0.01 0.01 0.01 0.02 0.01 0.00 0.00 0.00 0.00 0.00 0.00
0.00 0.00 0.00 0.00 0.00 0.00 0.00 0.00 0.00 0.00 0.00 0.00 0.00 0.00 0.00 0.00 0.00 0.00 0.00 0.01 0.01 0.01 0.00 0.01 0.01 0.00 0.00 0.00 0.01 0.02 0.04 0.05 0.02 0.01 0.00 0.00 0.00 0.00
0.00 0.00 0.00 0.00 0.00 0.00 0.00 0.00 0.00 0.00 0.00 0.00 0.00 0.00 0.00 0.00 0.00 0.00 0.00 0.00 0.00 0.00 0.00 0.00 0.00 0.00 0.00 0.00 0.01 0.01 0.03 0.03 0.02 0.01 0.00 0.00 0.00 0.00
0.00 0.00 0.00 0.00 0.00 0.00 0.00 0.00 0.00 0.00 0.00 0.00 0.00 0.00 0.00 0.00 0.00 0.00 0.00 0.00 0.00 0.01 0.00 0.00 0.00 0.00 0.00 0.00 0.01 0.00 0.02 0.03 0.01 0.00 0.00 0.00 0.00 0.00
0.00 0.00 0.00 0.00 0.00 0.00 0.00 0.00 0.00 0.00 0.00 0.00 0.00 0.00 0.00 0.00 0.00 0.00 0.00 0.00 0.00 0.00 0.00 0.00 0.00 0.00 0.00 0.00 0.00 0.00 0.01 0.02 0.01 0.01 0.01 0.00 0.01 0.00
0.00 0.00 0.00 0.00 0.01 0.00 0.00 0.00 0.00 0.00 0.00 0.00 0.00 0.00 0.00 0.00 0.00 0.00 0.00 0.00 0.00 0.00 0.00 0.00 0.00 0.00 0.00 0.00 0.00 0.00 0.01 0.01 0.00 0.00 0.00 0.01 0.02 0.01
0.00 0.00 0.00 0.01 0.00 0.00 0.00 0.00 0.00 0.00 0.00 0.00 0.00 0.00 0.00 0.00 0.00 0.00 0.00 0.00 0.00 0.00 0.00 0.00 0.00 0.00 0.00 0.00 0.00 0.00 0.00 0.00 0.00 0.00 0.00 0.00 0.00 0.00
0.00 0.00 0.00 0.00 0.00 0.00 0.00 0.00 0.00 0.00 0.00 0.00 0.00 0.00 0.00 0.00 0.00 0.00 0.00 0.00 0.00 0.00 0.00 0.00 0.00 0.00 0.00 0.00 0.00 0.00 0.00 0.00 0.00 0.00 0.00 0.00 0.00 0.00
0.01 0.01 0.00 0.01 0.00 0.00 0.00 0.00 0.00 0.00 0.00 0.00 0.00 0.00 0.00 0.00 0.00 0.00 0.00 0.00 0.00 0.00 0.00 0.00 0.00 0.00 0.00 0.00 0.00 0.00 0.00 0.00 0.00 0.00 0.00 0.00 0.00 0.00
0.00 0.00 0.00 0.00 0.00 0.00 0.00 0.00 0.00 0.00 0.00 0.00 0.00 0.00 0.00 0.00 0.00 0.00 0.00 0.00 0.00 0.00 0.00 0.00 0.00 0.00 0.00 0.00 0.01 0.00 0.00 0.00 0.00 0.00 0.00 0.00 0.00 0.00
0.00 0.00 0.00 0.00 0.00 0.00 0.00 0.00 0.00 0.00 0.00 0.00 0.00 0.00 0.00 0.00 0.00 0.00 0.00 0.00 0.00 0.00 0.00 0.00 0.00 0.00 0.01 0.00 0.00 0.00 0.00 0.00 0.00 0.00 0.00 0.00 0.00 0.00
MSLP
1023.36 1023.50 1023.51 1023.42 1023.39 1023.28 1023.25 1023.45 1023.54 1023.39 1022.53 1022.30 1021.94 1021.56 1021.29 1021.12 1020.95 1020.81 1020.59 1020.30 1020.09 1020.04 1019.95 1019.72 1019.49 1019.31 1019.13 1019.14 1019.15 1019.00 1018.86 1018.65 1018.32 1017.92 1017.57 1017.10 1016.62 1015.86
1022.98 1023.03 1023.07 1023.09 1023.14 1023.17 1023.15 1023.22 1023.28 1023.27 1022.54 1022.24 1021.64 1021.37 1021.15 1020.82 1020.67 1020.58 1020.45 1020.19 1019.93 1019.60 1019.33 1019.12 1018.91 1018.77 1018.45 1018.31 1018.44 1018.48 1018.29 1018.04 1017.88 1017.60 1017.13 1016.68 1016.22 1015.39
1023.06 1023.02 1022.94 1023.03 1023.16 1023.27 1023.20 1023.18 1023.02 1022.86 1022.41 1021.76 1021.43 1021.08 1020.92 1020.69 1020.55 1020.46 1020.22 1019.98 1019.52 1019.09 1018.84 1018.61 1018.43 1018.16 1017.82 1017.76 1017.92 1017.87 1017.75 1017.39 1017.12 1016.98 1016.71 1016.25 1015.75 1015.04
1023.08 1023.16 1023.28 1023.31 1023.26 1023.16 1023.11 1023.07 1023.13 1023.07 1022.85 1022.16 1021.71 1021.23 1020.91 1020.56 1020.42 1020.35 1019.86 1019.45 1019.05 1018.63 1018.32 1017.93 1017.68 1017.50 1017.22 1017.15 1017.17 1017.20 1017.03 1016.71 1016.52 1016.36 1016.19 1015.77 1015.37 1014.80
1023.10 1023.06 1023.08 1023.07 1023.15 1023.16 1023.45 1023.45 1023.47 1023.24 1023.01 1022.64 1021.96 1021.48 1020.99 1020.68 1020.39 1020.07 1019.69 1019.27 1018.74 1018.18 1017.67 1017.26 1017.04 1016.73 1016.74 1016.72 1016.68 1016.41 1016.11 1015.95 1015.77 1015.66 1015.46 1015.24 1015.02 1014.59
1023.12 1023.01 1022.91 1022.88 1023.12 1023.24 1023.37 1023.61 1023.56 1023.62 1023.38 1022.97 1022.41 1021.72 1021.28 1020.86 1020.41 1020.03 1019.52 1019.12 1018.58 1018.00 1017.57 1017.15 1016.66 1016.25 1015.87 1015.74 1015.66 1015.51 1015.32 1015.11 1015.08 1015.03 1014.82 1014.64 1014.45 1014.28
1023.01 1022.75 1022.63 1022.61 1022.60 1023.19 1023.32 1023.37 1023.52 1023.61 1023.41 1023.02 1022.46 1021.88 1021.35 1020.94 1020.55 1019.97 1019.44 1019.15 1018.47 1018.11 1017.48 1016.93 1016.51 1016.09 1015.56 1015.13 1014.72 1014.54 1014.35 1014.23 1014.24 1014.36 1014.20 1014.01 1013.96 1013.91
1022.85 1022.68 1022.52 1022.42 1022.89 1022.88 1023.24 1023.42 1023.50 1023.45 1023.08 1022.87 1022.48 1021.94 1021.32 1020.84 1020.43 1020.10 1019.75 1019.22 1018.40 1017.62 1017.19 1016.65 1016.32 1015.80 1015.27 1014.78 1014.38 1014.44 1014.34 1013.84 1013.51 1013.85 1013.65 1013.44 1013.52 1013.54
1022.80 1022.61 1022.59 1022.45 1022.78 1023.01 1023.18 1023.26 1023.29 1022.96 1022.68 1022.45 1022.06 1021.67 1020.99 1020.83 1020.40 1020.03 1019.63 1019.21 1018.44 1017.43 1017.25 1016.24 1015.69 1015.19 1014.62 1014.09 1013.76 1013.60 1013.52 1013.52 1013.47 1013.48 1013.30 1013.06 1013.14 1013.32
1022.72 1022.65 1022.66 1022.66 1023.02 1023.19 1023.28 1023.21 1023.10 1022.68 1022.26 1021.87 1021.62 1021.33 1020.86 1020.42 1020.14 1019.68 1019.21 1018.63 1017.77 1016.86 1016.39 1015.61 1014.92 1014.50 1014.00 1013.52 1013.06 1012.88 1012.82 1012.82 1012.90 1013.00 1012.97 1012.87 1012.83 1012.96
1022.89 1022.80 1022.60 1022.65 1023.11 1023.14 1023.18 1023.14 1022.83 1022.41 1021.81 1021.38 1021.19 1020.71 1020.12 1019.60 1019.19 1018.88 1018.48 1018.13 1017.12 1016.27 1015.65 1015.31 1014.51 1014.03 1013.46 1012.85 1012.50 1012.15 1012.01 1012.05 1012.22 1012.45 1012.53 1012.57 1012.57 1012.54
1022.88 1022.68 1022.84 1022.92 1023.08 1023.16 1023.09 1023.04 1022.78 1022.27 1021.94 1021.52 1020.99 1020.29 1019.60 1019.09 1018.56 1018.21 1017.95 1017.47 1016.96 1015.90 1015.15 1015.08 1014.43 1013.94 1013.21 1012.28 1012.28 1011.95 1011.47 1011.22 1011.52 1011.88 1012.12 1012.22 1012.29 1012.40
1022.75 1022.68 1022.74 1022.88 1022.85 1022.72 1022.67 1022.67 1022.53 1022.06 1021.72 1021.38 1020.69 1020.01 1019.37 1018.89 1018.43 1018.04 1017.64 1017.36 1016.72 1015.82 1014.92 1014.70 1014.01 1013.71 1013.27 1012.56 1011.89 1011.61 1011.14 1010.92 1011.20 1011.49 1011.69 1011.89 1012.03 1012.10
1022.60 1022.47 1022.31 1022.18 1022.14 1022.18 1022.13 1022.03 1021.87 1021.73 1021.52 1020.96 1020.63 1020.01 1019.41 1018.87 1018.35 1017.79 1017.16 1016.53 1015.86 1015.09 1014.01 1013.87 1013.45 1013.42 1013.15 1012.66 1011.94 1011.31 1011.04 1010.56 1010.83 1011.36 1011.48 1011.61 1011.80 1011.88
1022.21 1022.09 1021.99 1021.95 1021.85 1021.65 1021.46 1021.30 1021.30 1021.29 1021.05 1020.91 1020.55 1020.00 1019.39 1018.72 1018.11 1017.49 1016.76 1016.06 1015.18 1014.32 1013.28 1012.83 1012.92 1012.84 1012.92 1012.77 1012.33 1011.77 1010.91 1010.71 1010.68 1011.04 1011.25 1011.51 1011.80 1012.06
1021.70 1021.73 1021.64 1021.50 1021.17 1021.05 1020.99 1020.86 1020.60 1020.64 1020.56 1020.63 1020.29 1019.88 1019.25 1018.55 1018.03 1017.48 1016.86 1016.05 1015.19 1014.15 1013.39 1013.03 1012.86 1012.72 1012.64 1012.61 1012.33 1011.89 1011.51 1011.24 1010.89 1011.14 1011.32 1011.44 1011.45 1011.50
1021.31 1021.26 1021.21 1021.02 1020.66 1020.53 1020.42 1020.26 1020.21 1020.20 1020.32 1020.22 1020.29 1019.98 1019.37 1018.76 1018.17 1017.51 1016.88 1016.16 1015.62 1014.79 1013.92 1013.20 1012.72 1012.43 1012.38 1012.45 1012.29 1012.01 1011.54 1011.03 1011.02 1011.26 1011.49 1011.76 1011.53 1011.57
1020.82 1020.85 1020.77 1020.57 1020.25 1020.17 1020.17 1020.15 1019.89 1019.90 1019.99 1020.10 1020.05 1019.84 1019.56 1019.15 1018.52 1017.76 1016.89 1016.35 1015.82 1015.18 1014.53 1013.77 1012.98 1012.45 1012.33 1012.67 1012.38 1011.94 1010.81 1010.88 1011.18 1011.52 1011.62 1011.69 1011.76 1011.84
1020.13 1020.17 1020.19 1019.97 1019.68 1019.64 1019.69 1019.74 1019.73 1019.59 1019.78 1019.86 1019.89 1019.85 1019.56 1019.34 1018.80 1018.11 1017.27 1016.68 1016.11 1015.49 1014.84 1014.17 1013.65 1013.34 1013.02 1012.76 1012.67 1012.34 1012.21 1012.00 1011.93 1012.05 1012.04 1012.22 1012.15 1012.45
1019.19 1019.23 1019.22 1019.09 1018.94 1019.01 1019.11 1019.22 1019.25 1019.39 1019.60 1019.72 1019.79 1019.58 1019.41 1019.38 1018.92 1018.41 1017.75 1017.16 1016.55 1015.86 1015.08 1014.56 1014.23 1014.03 1013.93 1013.72 1013.38 1013.11 1012.81 1012.52 1012.45 1012.49 1012.46 1012.34 1012.62 1012.72
1018.08 1018.13 1018.19 1018.14 1018.12 1018.19 1018.26 1018.45 1018.80 1019.15 1019.30 1019.45 1019.46 1019.32 1019.14 1019.19 1018.98 1018.56 1018.10 1017.49 1016.87 1016.15 1015.58 1015.02 1014.47 1013.94 1013.58 1013.40 1013.29 1013.10 1013.32 1013.03 1012.88 1012.93 1012.80 1012.87 1012.83 1012.86
1017.04 1017.01 1016.95 1016.99 1017.12 1017.36 1017.62 1017.93 1018.32 1018.63 1018.80 1018.89 1018.94 1018.96 1018.90 1018.89 1019.01 1018.60 1018.22 1017.79 1017.22 1016.60 1016.03 1015.31 1014.49 1013.82 1013.29 1013.25 1013.12 1013.30 1013.43 1013.52 1013.33 1013.28 1013.35 1013.39 1013.60 1013.58
1015.86 1015.87 1015.92 1016.06 1016.25 1016.54 1016.87 1017.24 1017.61 1017.95 1018.16 1018.34 1018.51 1018.67 1018.72 1019.10 1018.58 1018.30 1018.25 1017.92 1017.51 1016.97 1016.56 1015.84 1014.78 1013.94 1013.51 1013.23 1013.29 1013.39 1013.60 1013.75 1013.75 1013.72 1013.88 1013.81 1013.82 1013.92
Thickness
5374 5362 5348 5335 5323 5314 5304 5294 5283 5282 5294 5293 5290 5286 5283 5279 5276 5272 5273 5273 5274 5273 5273 5276 5277 5277 5281 5284 5289 5297 5303 5313 5330 5350 5370 5388 5409 5432
5359 5346 5332 5319 5307 5298 5290 5283 5277 5270 5274 5276 5280 5275 5270 5266 5263 5260 5260 5259 5261 5262 5262 5263 5265 5266 5270 5274 5277 5280 5286 5293 5303 5320 5340 5362 5383 5406
5339 5326 5314 5301 5290 5282 5277 5273 5271 5267 5264 5269 5267 5264 5257 5254 5252 5247 5247 5247 5248 5251 5251 5251 5252 5256 5259 5261 5263 5268 5273 5280 5287 5298 5314 5336 5358 5381
5319 5305 5294 5285 5276 5271 5268 5264 5259 5255 5249 5248 5250 5250 5245 5242 5240 5235 5235 5236 5238 5239 5240 5241 5241 5243 5247 5250 5254 5258 5262 5269 5275 5283 5295 5318 5335 5358
5300 5289 5280 5272 5266 5262 5255 5251 5246 5243 5237 5232 5234 5234 5231 5228 5226 5225 5224 5226 5227 5228 5230 5232 5231 5232 5234 5236 5240 5246 5254 5261 5267 5273 5283 5296 5314 5336
5283 5274 5268 5263 5256 5252 5247 5240 5235 5227 5223 5219 5218 5219 5217 5215 5214 5215 5216 5216 5216 5216 5216 5216 5218 5221 5224 5228 5231 5235 5244 5252 5258 5266 5275 5285 5299 5316
5272 5265 5259 5255 5252 5245 5238 5232 5223 5216 5211 5208 5207 5206 5205 5204 5204 5206 5206 5203 5205 5202 5202 5204 5205 5208 5212 5217 5223 5229 5235 5245 5253 5259 5267 5278 5289 5302
5260 5255 5251 5247 5242 5239 5230 5222 5215 5208 5204 5199 5196 5195 5196 5196 5196 5194 5191 5189 5192 5192 5187 5193 5190 5196 5199 5205 5211 5217 5224 5235 5246 5251 5261 5272 5280 5291
5249 5246 5243 5240 5235 5228 5221 5214 5207 5202 5197 5193 5190 5188 5191 5187 5187 5185 5181 5177 5179 5182 5175 5182 5182 5187 5191 5197 5203 5210 5218 5225 5232 5242 5254 5265 5272 5282
5241 5238 5235 5231 5226 5220 5213 5208 5202 5197 5193 5190 5186 5184 5184 5184 5181 5179 5175 5174 5174 5175 5171 5177 5178 5183 5187 5193 5199 5205 5212 5218 5224 5235 5246 5258 5266 5275
5232 5229 5228 5224 5217 5212 5206 5201 5198 5193 5190 5186 5183 5183 5184 5183 5180 5178 5172 5170 5172 5172 5171 5171 5175 5179 5183 5190 5196 5202 5209 5214 5220 5230 5241 5251 5261 5271
5223 5222 5220 5215 5210 5205 5199 5194 5191 5188 5184 5181 5179 5181 5182 5182 5179 5175 5172 5169 5167 5168 5169 5168 5172 5175 5180 5189 5192 5198 5207 5214 5220 5227 5236 5247 5256 5265
5217 5215 5213 5209 5205 5202 5197 5191 5187 5185 5180 5177 5177 5179 5180 5178 5176 5173 5169 5165 5163 5165 5169 5168 5172 5175 5178 5187 5194 5198 5206 5214 5218 5225 5234 5243 5251 5260
5211 5210 5208 5207 5203 5199 5195 5191 5187 5181 5176 5174 5173 5174 5175 5174 5172 5170 5169 5169 5169 5170 5174 5172 5175 5176 5179 5185 5194 5200 5205 5213 5218 5222 5231 5239 5247 5255
5207 5206 5204 5202 5200 5198 5195 5192 5186 5179 5175 5169 5168 5169 5171 5172 5171 5170 5169 5170 5173 5175 5180 5180 5179 5179 5180 5183 5188 5197 5206 5211 5218 5222 5229 5236 5242 5250
5204 5202 5200 5199 5199 5197 5193 5191 5188 5182 5175 5169 5166 5166 5168 5169 5168 5167 5167 5169 5172 5178 5180 5180 5179 5180 5181 5182 5188 5194 5202 5208 5215 5218 5223 5230 5239 5247
5200 5198 5196 5196 5197 5195 5193 5190 5186 5181 5175 5168 5163 5162 5163 5164 5165 5165 5165 5167 5168 5172 5177 5181 5182 5183 5184 5185 5190 5193 5200 5208 5213 5216 5219 5222 5231 5240
5197 5193 5191 5191 5194 5191 5187 5185 5183 5179 5173 5167 5161 5159 5157 5158 5160 5162 5165 5165 5165 5168 5172 5177 5183 5186 5187 5184 5187 5195 5206 5208 5209 5210 5214 5221 5227 5233
5196 5191 5189 5190 5190 5190 5186 5183 5180 5177 5172 5166 5161 5156 5154 5154 5156 5158 5161 5163 5162 5165 5169 5173 5178 5180 5183 5187 5186 5190 5194 5198 5201 5203 5208 5213 5221 5224
5195 5193 5190 5190 5190 5187 5184 5181 5178 5173 5168 5164 5159 5156 5152 5150 5152 5154 5157 5158 5159 5162 5167 5170 5172 5173 5174 5177 5181 5185 5188 5193 5197 5200 5205 5211 5214 5219
5197 5194 5191 5190 5188 5185 5182 5179 5173 5169 5165 5161 5158 5156 5153 5150 5147 5151 5152 5154 5157 5162 5164 5166 5169 5174 5177 5180 5183 5186 5186 5190 5194 5197 5202 5205 5213 5216
5195 5194 5193 5190 5187 5184 5180 5176 5171 5167 5164 5161 5158 5154 5153 5148 5145 5145 5148 5151 5155 5158 5161 5165 5171 5176 5181 5183 5186 5184 5186 5186 5189 5192 5195 5199 5201 5209
5195 5193 5192 5189 5186 5182 5178 5173 5170 5165 5162 5160 5157 5153 5150 5145 5145 5144 5146 5148 5152 5155 5156 5161 5170 5177 5182 5185 5185 5184 5182 5182 5185 5186 5187 5192 5195 5199